Time,TemperatureF,DewpointF,PressureIn,WindDirection,WindDirectionDegrees,WindSpeedMPH,WindSpeedGustMPH,Humidity,HourlyPrecipIn,Conditions,Clouds,dailyrainin,SoftwareType,DateUTC
2013-04-19 00:03:00,60.0,57.0,30.01,ESE,114,4.0,9.0,91,0.00,,,0.04,,2013-04-19 04:03:00,
2013-04-19 00:13:00,60.0,57.0,30.01,ESE,114,4.0,9.0,91,0.00,,,0.04,,2013-04-19 04:13:00,
2013-04-19 00:23:00,60.0,57.0,30.01,ESE,113,5.0,9.0,91,0.00,,,0.04,,2013-04-19 04:23:00,
2013-04-19 00:33:00,59.0,57.0,30.00,ESE,123,5.0,10.0,92,0.00,,,0.04,,2013-04-19 04:33:00,
2013-04-19 00:43:00,60.0,58.0,30.00,ESE,122,5.0,9.0,92,0.00,,,0.04,,2013-04-19 04:43:00,
2013-04-19 00:52:00,60.0,58.0,30.00,ESE,122,5.0,9.0,92,0.00,,,0.04,,2013-04-19 04:52:00,
2013-04-19 01:03:00,60.0,58.0,30.00,ESE,114,4.0,8.0,92,0.00,,,0.04,,2013-04-19 05:03:00,
2013-04-19 01:12:00,60.0,58.0,30.00,ESE,114,4.0,8.0,92,0.00,,,0.04,,2013-04-19 05:12:00,
2013-04-19 01:22:00,60.0,58.0,29.99,East,91,5.0,10.0,92,0.00,,,0.04,,2013-04-19 05:22:00,
2013-04-19 01:32:00,59.0,57.0,29.98,ESE,108,5.0,8.0,93,0.00,,,0.04,,2013-04-19 05:32:00,
2013-04-19 01:42:00,59.0,57.0,29.98,ESE,108,5.0,8.0,93,0.00,,,0.04,,2013-04-19 05:42:00,
2013-04-19 01:52:00,59.0,57.0,29.98,ESE,120,4.0,10.0,93,0.00,,,0.04,,2013-04-19 05:52:00,
2013-04-19 02:02:00,59.0,57.0,29.96,ESE,111,5.0,8.0,94,0.00,,,0.04,,2013-04-19 06:02:00,
2013-04-19 02:12:00,59.0,57.0,29.96,ESE,111,5.0,8.0,94,0.00,,,0.04,,2013-04-19 06:12:00,
2013-04-19 02:22:00,59.0,57.0,29.95,ESE,112,5.0,8.0,94,0.00,,,0.04,,2013-04-19 06:22:00,
2013-04-19 02:32:00,59.0,58.0,29.95,SE,128,4.0,9.0,95,0.00,,,0.04,,2013-04-19 06:32:00,
2013-04-19 02:42:00,59.0,58.0,29.95,SE,128,4.0,9.0,95,0.00,,,0.04,,2013-04-19 06:42:00,
2013-04-19 02:52:00,59.0,58.0,29.94,ESE,118,4.0,9.0,95,0.00,,,0.04,,2013-04-19 06:52:00,
2013-04-19 03:02:00,59.0,58.0,29.93,ESE,117,4.0,8.0,95,0.00,,,0.04,,2013-04-19 07:02:00,
2013-04-19 03:12:00,59.0,58.0,29.94,SE,126,5.0,9.0,95,0.00,,,0.04,,2013-04-19 07:12:00,
2013-04-19 03:21:00,59.0,58.0,29.94,SE,126,5.0,9.0,95,0.00,,,0.04,,2013-04-19 07:21:00,
2013-04-19 03:32:00,59.0,58.0,29.93,SE,130,5.0,10.0,95,0.00,,,0.04,,2013-04-19 07:32:00,
2013-04-19 03:42:00,59.0,58.0,29.93,SE,130,5.0,10.0,95,0.00,,,0.04,,2013-04-19 07:42:00,
2013-04-19 03:52:00,59.0,58.0,29.93,SE,138,6.0,10.0,95,0.00,,,0.04,,2013-04-19 07:52:00,
2013-04-19 04:02:00,59.0,58.0,29.92,SE,138,5.0,12.0,95,0.00,,,0.04,,2013-04-19 08:02:00,
2013-04-19 04:12:00,59.0,58.0,29.92,SE,145,4.0,9.0,95,0.00,,,0.04,,2013-04-19 08:12:00,
2013-04-19 04:22:00,59.0,58.0,29.92,SE,145,4.0,9.0,95,0.00,,,0.04,,2013-04-19 08:22:00,
2013-04-19 04:33:00,59.0,58.0,29.92,SSE,150,3.0,8.0,95,0.00,,,0.04,,2013-04-19 08:33:00,
2013-04-19 04:42:00,60.0,59.0,29.91,SE,139,4.0,9.0,95,0.00,,,0.04,,2013-04-19 08:42:00,
2013-04-19 04:52:00,60.0,59.0,29.91,SE,139,4.0,9.0,95,0.00,,,0.04,,2013-04-19 08:52:00,
2013-04-19 05:01:00,60.0,59.0,29.91,SE,140,3.0,8.0,95,0.00,,,0.04,,2013-04-19 09:01:00,
2013-04-19 05:12:00,60.0,59.0,29.91,SE,140,3.0,8.0,95,0.00,,,0.04,,2013-04-19 09:12:00,
2013-04-19 05:21:00,60.0,59.0,29.90,SE,125,4.0,8.0,95,0.00,,,0.04,,2013-04-19 09:21:00,
2013-04-19 05:33:00,60.0,59.0,29.89,ESE,121,3.0,7.0,95,0.00,,,0.04,,2013-04-19 09:33:00,
2013-04-19 05:43:00,60.0,59.0,29.89,ESE,121,3.0,7.0,95,0.00,,,0.04,,2013-04-19 09:43:00,
2013-04-19 05:52:00,60.0,59.0,29.89,SE,145,3.0,7.0,95,0.00,,,0.04,,2013-04-19 09:52:00,
2013-04-19 06:02:00,60.0,59.0,29.89,SE,125,3.0,7.0,95,0.00,,,0.04,,2013-04-19 10:02:00,
2013-04-19 06:13:00,60.0,59.0,29.89,SSE,151,3.0,8.0,95,0.00,,,0.04,,2013-04-19 10:13:00,
2013-04-19 06:23:00,60.0,59.0,29.89,SSE,151,3.0,8.0,95,0.00,,,0.04,,2013-04-19 10:23:00,
2013-04-19 06:33:00,60.0,59.0,29.90,SE,136,5.0,9.0,95,0.00,,,0.04,,2013-04-19 10:33:00,
2013-04-19 06:42:00,60.0,59.0,29.90,SE,142,5.0,12.0,95,0.00,,,0.04,,2013-04-19 10:42:00,
2013-04-19 06:52:00,60.0,59.0,29.90,SE,142,5.0,12.0,95,0.00,,,0.04,,2013-04-19 10:52:00,
2013-04-19 07:03:00,61.0,59.0,29.89,SE,128,6.0,10.0,94,0.00,,,0.04,,2013-04-19 11:03:00,
2013-04-19 07:11:00,61.0,59.0,29.89,SE,128,6.0,10.0,94,0.00,,,0.04,,2013-04-19 11:11:00,
2013-04-19 07:22:00,61.0,60.0,29.89,SE,136,4.0,10.0,95,0.00,,,0.04,,2013-04-19 11:22:00,
2013-04-19 07:32:00,61.0,60.0,29.89,SSE,157,6.0,12.0,95,0.00,,,0.04,,2013-04-19 11:32:00,
2013-04-19 07:42:00,61.0,60.0,29.89,SSE,157,6.0,12.0,95,0.00,,,0.04,,2013-04-19 11:42:00,
2013-04-19 07:52:00,61.0,60.0,29.89,SE,139,5.0,17.0,95,0.00,,,0.04,,2013-04-19 11:52:00,
2013-04-19 08:03:00,61.0,60.0,29.89,SSE,151,6.0,9.0,96,0.00,,,0.04,,2013-04-19 12:03:00,
2013-04-19 08:12:00,62.0,61.0,29.89,SE,145,5.0,8.0,96,0.00,,,0.04,,2013-04-19 12:12:00,
2013-04-19 08:22:00,62.0,61.0,29.89,SE,145,5.0,8.0,96,0.00,,,0.04,,2013-04-19 12:22:00,
2013-04-19 08:32:00,62.0,61.0,29.88,SSE,150,5.0,9.0,95,0.00,,,0.04,,2013-04-19 12:32:00,
2013-04-19 08:42:00,62.0,61.0,29.88,SSE,150,5.0,9.0,95,0.00,,,0.04,,2013-04-19 12:42:00,
2013-04-19 08:52:00,62.0,61.0,29.88,SE,136,5.0,12.0,95,0.01,,,0.05,,2013-04-19 12:52:00,
2013-04-19 09:02:00,62.0,61.0,29.88,SSE,148,3.0,8.0,97,0.03,,,0.07,,2013-04-19 13:02:00,
2013-04-19 09:11:00,62.0,62.0,29.88,ESE,122,3.0,7.0,100,0.03,,,0.07,,2013-04-19 13:11:00,
2013-04-19 09:22:00,62.0,62.0,29.88,ESE,122,3.0,7.0,100,0.03,,,0.07,,2013-04-19 13:22:00,
2013-04-19 09:32:00,62.0,62.0,29.86,ESE,123,5.0,8.0,100,0.04,,,0.08,,2013-04-19 13:32:00,
2013-04-19 09:42:00,62.0,62.0,29.86,ESE,123,5.0,8.0,100,0.04,,,0.08,,2013-04-19 13:42:00,
2013-04-19 09:52:00,62.0,62.0,29.86,SSE,157,4.0,8.0,100,0.04,,,0.08,,2013-04-19 13:52:00,
2013-04-19 10:02:00,63.0,63.0,29.86,SE,142,5.0,12.0,100,0.01,,,0.08,,2013-04-19 14:02:00,
2013-04-19 10:11:00,63.0,63.0,29.85,ESE,116,5.0,9.0,100,0.01,,,0.08,,2013-04-19 14:11:00,
2013-04-19 10:22:00,63.0,63.0,29.85,ESE,116,5.0,9.0,100,0.01,,,0.08,,2013-04-19 14:22:00,
2013-04-19 10:32:00,64.0,63.0,29.84,SSE,149,7.0,13.0,95,0.00,,,0.08,,2013-04-19 14:32:00,
2013-04-19 10:43:00,64.0,63.0,29.84,SSE,149,7.0,13.0,95,0.00,,,0.08,,2013-04-19 14:43:00,
2013-04-19 10:52:00,66.0,64.0,29.84,SSE,152,7.0,14.0,93,0.00,,,0.08,,2013-04-19 14:52:00,
2013-04-19 11:02:00,67.0,64.0,29.81,SE,137,8.0,14.0,91,0.00,,,0.08,,2013-04-19 15:02:00,
2013-04-19 11:12:00,68.0,64.0,29.80,SE,141,7.0,13.0,88,0.00,,,0.08,,2013-04-19 15:12:00,
2013-04-19 11:22:00,68.0,64.0,29.80,SE,141,7.0,13.0,88,0.00,,,0.08,,2013-04-19 15:22:00,
2013-04-19 11:33:00,68.0,65.0,29.81,SE,131,8.0,15.0,89,0.00,,,0.08,,2013-04-19 15:33:00,
2013-04-19 11:43:00,68.0,65.0,29.81,SE,131,8.0,15.0,89,0.00,,,0.08,,2013-04-19 15:43:00,
2013-04-19 11:52:00,68.0,64.0,29.81,SSE,152,8.0,14.0,88,0.00,,,0.06,,2013-04-19 15:52:00,
2013-04-19 12:03:00,69.0,65.0,29.80,SSE,159,7.0,16.0,88,0.00,,,0.05,,2013-04-19 16:03:00,
2013-04-19 12:13:00,70.0,66.0,29.80,SE,135,7.0,15.0,86,0.00,,,0.05,,2013-04-19 16:13:00,
2013-04-19 12:23:00,70.0,66.0,29.80,SE,135,7.0,15.0,86,0.00,,,0.05,,2013-04-19 16:23:00,
2013-04-19 12:33:00,69.0,65.0,29.79,SSE,163,6.0,18.0,86,0.00,,,0.04,,2013-04-19 16:33:00,
2013-04-19 12:42:00,70.0,65.0,29.78,South,179,8.0,15.0,85,0.00,,,0.04,,2013-04-19 16:42:00,
2013-04-19 12:52:00,70.0,65.0,29.78,South,179,8.0,15.0,85,0.00,,,0.04,,2013-04-19 16:52:00,
2013-04-19 13:02:00,71.0,66.0,29.77,SSE,156,7.0,16.0,84,0.00,,,0.04,,2013-04-19 17:02:00,
2013-04-19 13:12:00,71.0,66.0,29.77,SSE,156,7.0,16.0,84,0.00,,,0.04,,2013-04-19 17:12:00,
2013-04-19 13:22:00,72.0,67.0,29.77,South,178,9.0,17.0,83,0.00,,,0.04,,2013-04-19 17:22:00,
2013-04-19 13:33:00,72.0,66.0,29.77,SSE,155,9.0,16.0,82,0.00,,,0.04,,2013-04-19 17:33:00,
2013-04-19 13:42:00,72.0,66.0,29.77,SSE,155,9.0,16.0,82,0.00,,,0.04,,2013-04-19 17:42:00,
2013-04-19 13:52:00,71.0,65.0,29.76,SSE,149,7.0,14.0,82,0.00,,,0.04,,2013-04-19 17:52:00,
2013-04-19 14:02:00,72.0,66.0,29.73,SE,137,9.0,14.0,81,0.00,,,0.04,,2013-04-19 18:02:00,
2013-04-19 14:13:00,72.0,66.0,29.73,SE,137,9.0,14.0,81,0.00,,,0.04,,2013-04-19 18:13:00,
2013-04-19 14:23:00,72.0,65.0,29.72,SSE,149,9.0,14.0,79,0.00,,,0.04,,2013-04-19 18:23:00,
2013-04-19 14:33:00,73.0,66.0,29.70,SE,138,8.0,13.0,78,0.00,,,0.04,,2013-04-19 18:33:00,
2013-04-19 14:43:00,73.0,66.0,29.70,SE,138,8.0,13.0,78,0.00,,,0.04,,2013-04-19 18:43:00,
2013-04-19 14:52:00,73.0,66.0,29.70,SE,139,6.0,12.0,79,0.00,,,0.04,,2013-04-19 18:52:00,
2013-04-19 15:02:00,73.0,66.0,29.69,SE,139,7.0,14.0,79,0.00,,,0.04,,2013-04-19 19:02:00,
2013-04-19 15:11:00,73.0,66.0,29.69,SE,139,7.0,14.0,79,0.00,,,0.04,,2013-04-19 19:11:00,
2013-04-19 15:21:00,72.0,65.0,29.68,SE,136,7.0,14.0,79,0.00,,,0.04,,2013-04-19 19:21:00,
2013-04-19 15:32:00,74.0,66.0,29.66,SSE,154,9.0,15.0,75,0.00,,,0.04,,2013-04-19 19:32:00,
2013-04-19 15:42:00,74.0,66.0,29.66,SSE,154,9.0,15.0,75,0.00,,,0.04,,2013-04-19 19:42:00,
2013-04-19 15:52:00,74.0,66.0,29.65,SE,136,9.0,13.0,75,0.00,,,0.04,,2013-04-19 19:52:00,
2013-04-19 16:02:00,74.0,66.0,29.64,SE,135,10.0,16.0,75,0.00,,,0.04,,2013-04-19 20:02:00,
2013-04-19 16:11:00,74.0,66.0,29.64,SE,135,10.0,16.0,75,0.00,,,0.04,,2013-04-19 20:11:00,
2013-04-19 16:22:00,74.0,66.0,29.64,SSE,156,9.0,17.0,75,0.00,,,0.04,,2013-04-19 20:22:00,
2013-04-19 16:32:00,74.0,66.0,29.64,SSE,154,7.0,14.0,76,0.00,,,0.04,,2013-04-19 20:32:00,
2013-04-19 16:42:00,73.0,65.0,29.63,SE,146,7.0,18.0,77,0.00,,,0.04,,2013-04-19 20:42:00,
2013-04-19 16:52:00,73.0,65.0,29.63,SE,146,7.0,18.0,77,0.00,,,0.04,,2013-04-19 20:52:00,
2013-04-19 17:01:00,73.0,65.0,29.62,SE,140,7.0,14.0,77,0.00,,,0.04,,2013-04-19 21:01:00,
2013-04-19 17:12:00,73.0,65.0,29.62,SE,140,8.0,14.0,77,0.00,,,0.04,,2013-04-19 21:12:00,
2013-04-19 17:21:00,73.0,65.0,29.62,SE,140,8.0,14.0,77,0.00,,,0.04,,2013-04-19 21:21:00,
2013-04-19 17:32:00,72.0,65.0,29.62,SSE,147,8.0,14.0,78,0.00,,,0.04,,2013-04-19 21:32:00,
2013-04-19 17:42:00,72.0,65.0,29.62,SSE,147,8.0,14.0,78,0.00,,,0.04,,2013-04-19 21:42:00,
2013-04-19 17:52:00,72.0,65.0,29.62,SSE,156,8.0,12.0,78,0.00,,,0.04,,2013-04-19 21:52:00,
2013-04-19 18:02:00,72.0,65.0,29.61,SSE,162,6.0,12.0,78,0.00,,,0.04,,2013-04-19 22:02:00,
2013-04-19 18:12:00,72.0,65.0,29.61,SSE,162,6.0,12.0,78,0.00,,,0.04,,2013-04-19 22:12:00,
2013-04-19 18:23:00,73.0,66.0,29.61,SE,145,7.0,15.0,78,0.00,,,0.04,,2013-04-19 22:23:00,
2013-04-19 18:33:00,72.0,65.0,29.60,SE,140,8.0,14.0,78,0.00,,,0.04,,2013-04-19 22:33:00,
2013-04-19 18:42:00,72.0,65.0,29.60,SE,140,8.0,14.0,78,0.00,,,0.04,,2013-04-19 22:42:00,
2013-04-19 18:52:00,72.0,65.0,29.59,SSE,163,7.0,12.0,78,0.00,,,0.04,,2013-04-19 22:52:00,
2013-04-19 19:03:00,71.0,65.0,29.59,SE,141,7.0,16.0,82,0.00,,,0.04,,2013-04-19 23:03:00,
2013-04-19 19:11:00,71.0,65.0,29.59,SE,141,7.0,16.0,82,0.00,,,0.04,,2013-04-19 23:11:00,
2013-04-19 19:22:00,71.0,66.0,29.57,SE,131,6.0,12.0,83,0.00,,,0.04,,2013-04-19 23:22:00,
2013-04-19 19:32:00,71.0,65.0,29.56,SE,128,8.0,12.0,81,0.00,,,0.04,,2013-04-19 23:32:00,
2013-04-19 19:42:00,71.0,65.0,29.56,SE,128,8.0,12.0,81,0.00,,,0.04,,2013-04-19 23:42:00,
2013-04-19 19:52:00,71.0,65.0,29.56,SSE,147,8.0,14.0,81,0.00,,,0.04,,2013-04-19 23:52:00,
2013-04-19 20:02:00,71.0,65.0,29.60,WSW,247,7.0,16.0,81,0.00,,,0.04,,2013-04-20 00:02:00,
2013-04-19 20:12:00,71.0,65.0,29.60,WSW,247,7.0,16.0,81,0.00,,,0.04,,2013-04-20 00:12:00,
2013-04-19 20:22:00,65.0,61.0,29.63,WNW,285,9.0,25.0,88,0.36,,,0.40,,2013-04-20 00:22:00,
2013-04-19 20:32:00,61.0,60.0,29.65,SW,229,5.0,14.0,96,1.08,,,1.12,,2013-04-20 00:32:00,
2013-04-19 20:42:00,61.0,60.0,29.65,SW,229,5.0,14.0,96,1.08,,,1.12,,2013-04-20 00:42:00,
2013-04-19 20:51:00,61.0,61.0,29.63,WSW,243,6.0,13.0,100,1.18,,,1.22,,2013-04-20 00:51:00,
2013-04-19 21:01:00,60.0,60.0,29.65,WNW,283,5.0,8.0,100,1.48,,,1.52,,2013-04-20 01:01:00,
2013-04-19 21:11:00,60.0,60.0,29.65,WNW,283,5.0,8.0,100,1.48,,,1.52,,2013-04-20 01:11:00,
2013-04-19 21:21:00,60.0,60.0,29.65,West,279,9.0,12.0,100,1.17,,,1.57,,2013-04-20 01:21:00,
2013-04-19 21:32:00,60.0,60.0,29.68,WNW,299,6.0,12.0,100,0.49,,,1.61,,2013-04-20 01:32:00,
2013-04-19 21:42:00,60.0,60.0,29.68,WNW,299,6.0,12.0,100,0.49,,,1.61,,2013-04-20 01:42:00,
2013-04-19 21:52:00,59.0,59.0,29.70,WSW,239,2.0,7.0,100,0.40,,,1.62,,2013-04-20 01:52:00,
2013-04-19 22:02:00,58.0,58.0,29.70,SW,232,2.0,8.0,100,0.13,,,1.65,,2013-04-20 02:02:00,
2013-04-19 22:11:00,58.0,58.0,29.71,WSW,241,2.0,5.0,100,0.10,,,1.67,,2013-04-20 02:11:00,
2013-04-19 22:21:00,58.0,58.0,29.71,WSW,241,2.0,5.0,100,0.10,,,1.67,,2013-04-20 02:21:00,
2013-04-19 22:32:00,55.0,52.0,29.71,NW,308,14.0,20.0,90,0.12,,,1.73,,2013-04-20 02:32:00,
2013-04-19 22:42:00,55.0,52.0,29.71,NW,308,14.0,20.0,90,0.12,,,1.73,,2013-04-20 02:42:00,
2013-04-19 22:52:00,54.0,52.0,29.71,WNW,301,7.0,17.0,93,0.14,,,1.76,,2013-04-20 02:52:00,
2013-04-19 23:01:00,54.0,53.0,29.72,WNW,296,5.0,9.0,96,0.18,,,1.83,,2013-04-20 03:01:00,
2013-04-19 23:11:00,54.0,54.0,29.75,SW,229,1.0,6.0,100,0.19,,,1.86,,2013-04-20 03:11:00,
2013-04-19 23:21:00,54.0,54.0,29.75,SW,229,1.0,6.0,100,0.19,,,1.86,,2013-04-20 03:21:00,
2013-04-19 23:33:00,53.0,53.0,29.73,WNW,299,2.0,3.0,100,0.18,,,1.91,,2013-04-20 03:33:00,
2013-04-19 23:43:00,53.0,53.0,29.72,NW,317,3.0,8.0,100,0.16,,,1.92,,2013-04-20 03:43:00,
2013-04-19 23:52:00,53.0,53.0,29.72,NW,317,3.0,8.0,100,0.16,,,1.92,,2013-04-20 03:52:00,